Regional Weather Roundup
Issued by NWS

Current Version | Previous Version | Text Only | Print | Product List | Glossary On
Versions: 1 2 3 4 5 6 7 8 9 10 11 12 13 14 15 16 17 18 19 20 21 22 23 24 25 26 27 28 29 30 31 32 33 34 35 36 37 38 39 40 41 42 43
000
ASPQ40 PGUM 261712
RWRPQ
WEATHER ROUNDUP FOR THE MARIANAS AND MICRONESIA
NATIONAL WEATHER SERVICE TIYAN GU
300 AM CHST SAT DEC 27 2014

GUZ001>004-261800-
MARIANA ISLANDS-

CITY           SKY/WX    TMP DP  RH WIND       PRES   REMARKS
GUAM AIRPORT   PTCLDY    81  73  78 E12       29.82F
ANDERSEN AFB   MOCLDY    79  72  78 E15G25    29.82F
ROTA AIRPORT   NOT AVBL
TINIAN AP      NOT AVBL
SAIPAN AP      PTCLDY    79  72  78 E16G26    29.83F

$$

PMZ161-261800-
REPUBLIC OF PALAU-

CITY           SKY/WX    TMP DP  RH WIND       PRES   REMARKS
KOROR AP       NOT AVBL
KOROR WSO      NOT AVBL

$$

PMZ171>174-261800-
FEDERATED STATES OF MICRONESIA-

CITY           SKY/WX    TMP DP  RH WIND       PRES   REMARKS
YAP AIRPORT    MOCLDY    82  77  83 E8        29.69F HX  91
CHUUK AP       CLOUDY    82  75  78 NE14      29.71
POHNPEI AP     NOT AVBL
POHNPEI WSO    NOT AVBL
KOSRAE AP      NOT AVBL

$$

PMZ181-261800-
REPUBLIC OF THE MARSHALL ISLANDS-

CITY           SKY/WX    TMP DP  RH WIND       PRES   REMARKS
KWAJALEIN AP   CLEAR     81  70  69 E18       29.76R
MAJURO AP      NOT AVBL
MAJURO WSO     MOCLDY    82  73  74 NE17      29.72S

$$



USA.gov is the U.S. government's official web portal to all federal, state and local government web resources and services.